Location: Gerlach
(40.6516°N, 119.3568°W)
Time: 23:15:25
(UTC-08:00)

Vanguard 2 Rocket - All Passes

Search period start: 05 February 2023 00:00
Search period end: 15 February 2023 00:00
Orbit: 556 x 3318 km, 32.9° (Epoch: 05 February)

Date Brightness Start Highest point End Pass type
(mag) Time Alt. Az. Time Alt. Az. Time Alt. Az.
05 Feb - 08:54:51 10° SW 08:59:46 22° SSE 09:03:26 10° ESE daylight
05 Feb - 11:08:05 10° WSW 11:12:13 30° S 11:15:43 10° ESE daylight
05 Feb - 13:21:25 10° WSW 13:24:20 20° SSW 13:27:28 10° SE daylight
06 Feb - 07:54:06 10° SSW 07:59:29 19° SSE 08:03:27 10° ESE daylight
06 Feb - 10:07:19 10° WSW 10:12:17 30° S 10:16:00 10° ESE daylight
06 Feb - 12:21:01 10° WSW 12:24:27 24° S 12:27:43 10° SE daylight
07 Feb - 06:53:26 10° SSW 06:58:59 17° SSE 07:03:10 10° ESE daylight
07 Feb - 09:06:14 10° SW 09:12:12 30° S 09:16:19 10° ESE daylight
07 Feb - 11:20:23 10° WSW 11:24:35 30° S 11:28:04 10° SE daylight
07 Feb - 13:34:42 10° SW 13:36:36 13° SSW 13:38:36 10° S daylight
08 Feb - 05:53:13 10° S 05:58:14 14° SSE 06:02:15 10° SE visible
08 Feb - 08:04:55 10° SW 08:11:56 28° SSE 08:16:36 10° ESE daylight
08 Feb - 10:19:23 10° WSW 10:24:39 34° S 10:28:29 10° ESE daylight
08 Feb - 12:33:44 10° WSW 12:36:43 19° SSW 12:39:32 10° SSE daylight
09 Feb - 04:54:29 10° SSE 04:57:14 11° SSE 04:59:42 10° SE visible
09 Feb - 07:03:29 10° SW 07:11:26 26° SSE 07:16:43 10° ESE daylight
09 Feb - 09:18:01 10° WSW 09:24:35 36° S 09:28:56 10° ESE daylight
09 Feb - 11:32:48 10° WSW 11:36:52 26° SSW 11:40:13 10° SE daylight
10 Feb - 06:02:09 10° SSW 06:10:40 23° SSE 06:16:32 10° ESE visible
10 Feb - 08:16:20 10° SW 08:24:19 36° S 08:29:20 10° ESE daylight
10 Feb - 10:31:37 10° WSW 10:36:58 34° S 10:40:49 10° SE daylight
10 Feb - 12:47:04 10° SW 12:48:51 12° SSW 12:50:35 10° S daylight
11 Feb - 05:01:10 10° SSW 05:09:38 19° SSE 05:15:50 10° ESE visible
11 Feb - 07:14:24 10° SW 07:23:49 35° SSE 07:29:38 10° ESE daylight
11 Feb - 09:30:02 10° WSW 09:36:55 40° S 09:41:23 10° ESE daylight
11 Feb - 11:45:26 10° WSW 11:49:01 20° SSW 11:52:02 10° SSE daylight
12 Feb - 04:01:02 10° S 04:08:21 15° SSE 04:14:11 10° ESE visible
12 Feb - 06:12:25 10° SW 06:23:02 32° SSE 06:29:43 10° ESE visible
12 Feb - 08:28:05 10° WSW 08:36:39 43° S 08:41:52 10° ESE daylight
12 Feb - 10:43:57 10° WSW 10:49:10 29° SSW 10:52:58 10° SE daylight
13 Feb - 03:03:20 10° SSE 03:06:50 11° SSE 03:10:02 10° SE visible
13 Feb - 05:10:34 10° SSW 05:21:57 28° SSE 05:29:29 10° ESE visible
13 Feb - 07:25:48 10° WSW 07:36:09 43° S 07:42:15 10° ESE daylight
13 Feb - 09:42:11 10° WSW 09:49:10 39° SSW 09:53:41 10° ESE daylight
13 Feb - 11:58:33 10° WSW 12:01:02 14° SSW 12:03:13 10° S daylight
14 Feb - 04:09:10 10° SSW 04:20:36 24° SSE 04:28:43 10° ESE visible
14 Feb - 06:23:20 10° SW 06:35:21 41° SSE 06:42:27 10° E visible
14 Feb - 08:40:01 10° WSW 08:48:56 46° S 08:54:16 10° ESE daylight
14 Feb - 10:56:27 10° WSW 11:01:14 23° SSW 11:04:48 10° SSE daylight
